Regional Weather Roundup
Issued by NWS

Home | Current Version | Previous Version | Text Only | Print | Product List | Glossary Off
Versions: 1 2 3 4 5 6 7 8 9 10 11 12 13 14 15 16 17 18 19 20 21 22 23 24 25 26 27 28 29 30 31 32 33 34 35 36 37 38 39 40 41 42 43 44 45 46 47 48 49 50

000
ASUS43 KLSX 211207
RWRMO

WEATHER SUMMARY FOR MISSOURI
NATIONAL WEATHER SERVICE SPRINGFIELD MO
700 AM CDT THU AUG 21 2014

NOTE: "FAIR" INDICATES FEW OR NO CLOUDS BELOW 12,000 FEET WITH NO
       SIGNIFICANT WEATHER AND/OR OBSTRUCTIONS TO VISIBILITY.
       CURRENT SKY AND/OR WEATHER CONDITIONS ARE NOT AVAILABLE FOR
       CHILLICOTHE AND FARMINGTON.

MOZ001>031-035>038-043-044-053-054-211300-
...NORTHERN AND WESTERN MISSOURI...

CITY           SKY/WX    TMP DP  RH WIND       PRES   REMARKS
KANSAS CTY INT MOCLDY    78  69  73 S15       29.90R
6HR MIN TEMP:  77; 6HR MAX TEMP:  80;

KANSAS C DTWN  CLEAR     80  69  69 SW10      29.89R
6HR MIN TEMP:  79; 6HR MAX TEMP:  83;

LEE`S SUMMIT   PTCLDY    76  69  79 S9        29.92R
6HR MIN TEMP:  75; 6HR MAX TEMP:  79;

ST JOSEPH      PTCLDY    76  70  82 S10       29.86R
6HR MIN TEMP:  76; 6HR MAX TEMP:  80;

CHILLICOTHE      N/A     75  68  78 S8        29.90R
6HR MIN TEMP:  75; 6HR MAX TEMP:  80;

KIRKSVILLE     CLEAR     73  67  81 S9        29.92R
6HR MIN TEMP:  73; 6HR MAX TEMP:  77;


$$
MOZ066>068-077>081-088>096-101>105-211300-
...SOUTHWEST MISSOURI...

CITY           SKY/WX    TMP DP  RH WIND       PRES   REMARKS
SPRINGFIELD    CLEAR     73  69  87 S12       30.02R
6HR MIN TEMP:  73; 6HR MAX TEMP:  77;

JOPLIN         CLEAR     78  69  73 S17G24    29.98R
6HR MIN TEMP:  77; 6HR MAX TEMP:  79;


$$
MOZ032>034-039>042-045>050-055>058-069>072-211300-
...CENTRAL MISSOURI...

CITY           SKY/WX    TMP DP  RH WIND       PRES   REMARKS
COLUMBIA       CLEAR     71  68  90 S9        29.96S
6HR MIN TEMP:  70; 6HR MAX TEMP:  73;

JEFFERSON CITY CLEAR     72  67  84 VRB3      29.96R
6HR MIN TEMP:  69; 6HR MAX TEMP:  74;

ROLLA          CLEAR     73  67  81 S10       29.99S
6HR MIN TEMP:  72; 6HR MAX TEMP:  74;

SEDALIA        CLEAR     77  68  73 S14       29.95S
6HR MIN TEMP:  75; 6HR MAX TEMP:  79;

WHITEMAN AFB   PTCLDY    73  64  75 S13       29.93S
OSAGE BEACH    CLEAR     72  66  83 S6        29.99R

$$
MOZ051-052-059>065-211300-
...EAST CENTRAL MISSOURI...

CITY           SKY/WX    TMP DP  RH WIND       PRES   REMARKS
ST LOUIS INTL  PTCLDY    76  68  76 SW10      29.98R
6HR MIN TEMP:  75; 6HR MAX TEMP:  79;

SPIRIT OF STL  CLEAR     74  68  81 SW7       29.97R
6HR MIN TEMP:  70; 6HR MAX TEMP:  74;

ST CHARLES     PTCLDY    68  68 100 CALM      29.96R
6HR MIN TEMP:  67; 6HR MAX TEMP:  72;


$$
MOZ072>076-082>087-097>100-106>115-211300-
...SOUTH CENTRAL AND SOUTHEAST MISSOURI...

CITY           SKY/WX    TMP DP  RH WIND       PRES   REMARKS
CAPE GIRARDEAU CLEAR     75  73  93 S5        30.04R
6HR MIN TEMP:  75; 6HR MAX TEMP:  80;

FARMINGTON     CLEAR     75  70  83 SW9       30.05R
6HR MIN TEMP:  75; 6HR MAX TEMP:  79;

POPLAR BLUFF   CLEAR     73  70  90 SW5       30.04R
6HR MIN TEMP:  73; 6HR MAX TEMP:  78;

WEST PLAINS    CLEAR     74  70  87 S6        30.08R
6HR MIN TEMP:  73; 6HR MAX TEMP:  78;


$$



USA.gov is the U.S. government's official web portal to all federal, state and local government web resources and services.